Regional Weather Roundup
Issued by NWS

Home | Current Version | Previous Version | Graphics & Text | Print | Product List | Glossary On
Versions: 1 2 3 4 5 6 7 8 9 10 11 12 13 14 15 16 17 18 19 20 21 22 23 24 25 26 27 28 29 30 31 32 33 34 35 36 37 38 39 40 41 42 43 44 45 46 47 48 49 50
000
ASUS45 KTFX 020610
RWRMT
MONTANA REGIONAL WEATHER ROUNDUP
NATIONAL WEATHER SERVICE GREAT FALLS MT
1200 AM MDT SUN AUG 02 2015

NOTE: "FAIR" INDICATES FEW OR NO CLOUDS BELOW 12000 FEET WITH NO
SIGNIFICANT WEATHER AND/OR OBSTRUCTIONS TO VISIBILITY.

MTZ001>007-043-020700-
WEST OF THE DIVIDE

CITY           SKY/WX    TMP DP  RH WIND       PRES   REMARKS
KALISPELL      CLEAR     57  32  38 W3        29.92S
MISSOULA       CLEAR     70  38  31 CALM      29.97S
BUTTE          CLEAR     59  35  40 SE9       30.14S
MULLAN PASS    CLOUDY    69  16  13 VRB5      30.17S
DEER LODGE       N/A     63  36  36 W3        30.11S
EUREKA           N/A     66  30  26 S3        29.91R
HAMILTON         N/A     66  39  37 SW5       30.00S
LIBBY            N/A     66  30  26 CALM      29.93R
PLAINS           N/A     62  33  33 N1        29.94S
RONAN            N/A     61  39  44 NE3       30.00S
THOMPSON FALLS   N/A     63  32  31 CALM      29.98R
$$

MTZ008-052>055-020700-
SOUTHWEST MONTANA

CITY           SKY/WX    TMP DP  RH WIND       PRES   REMARKS
BOZEMAN        CLEAR     62  46  55 S5        30.03S
DILLON         CLEAR     61  39  44 SE9       30.09S
W YELLOWSTONE  CLEAR     50  41  71 CALM      30.22S
THREE FORKS      N/A     61  61 100 CALM      30.02R
TWIN BRIDGES     N/A     64  37  36 E2        30.06S
$$

MTZ009-010-012-014-046-048-049-054-020700-
EAST SLOPES AND CENTRAL MONTANA

CITY           SKY/WX    TMP DP  RH WIND       PRES   REMARKS
CUT BANK       PTCLDY    64  41  42 N13       29.99R
GREAT FALLS    CLEAR     65  35  33 SW9       29.93R
MALMSTROM AFB  CLEAR     68  34  28 W3        29.92R
HELENA         CLEAR     79  30  16 SW12      29.98S
CONRAD           N/A     58  38  47 CALM      29.99R
$$

MTZ011-013-016-021-045-047-050-051-020700-
NORTH CENTRAL MONTANA

CITY           SKY/WX    TMP DP  RH WIND       PRES   REMARKS
HAVRE          CLEAR     69  55  60 E12       29.91R
LEWISTOWN      CLEAR     60  40  47 SE5       29.98S
CHINOOK          N/A     68  55  64 E7        29.94R
FORT BENTON      N/A     72  46  40 NE7       29.90R
$$

MTZ017>020-022>027-061-062-020700-
NORTHEAST MONTANA

CITY           SKY/WX    TMP DP  RH WIND       PRES   REMARKS
GLASGOW        CLEAR     67  51  56 E8        29.90R
JORDAN           N/A     70  52  52 NE10      29.91R
SIDNEY         CLEAR    N/A N/A N/A N8        29.87R
WOLF POINT     CLEAR     68  52  56 NE13      29.89R
MALTA            N/A     68  55  62 NE1       29.89R
PLENTYWOOD       N/A     63  54  72 N8        29.91S
POPLAR           N/A     66  54  63 NE5       29.90S
SCOBEY           N/A     56  50  80 CALM      29.92F
$$

MTZ028>42-056>058-020700-
SOUTHCENTRAL AND SOUTHEAST MONTANA

CITY           SKY/WX    TMP DP  RH WIND       PRES   REMARKS
BAKER          CLEAR     66  40  38 CALM      29.90R
BILLINGS       PTCLDY    80  32  17 S6        29.95R
LIVINGSTON     CLEAR     61  38  42 SW3       30.03S
MILES CITY     CLEAR     72  37  28 NE9       29.87R
FORSYTH          N/A     72  32  23 CALM      29.87R
LAUREL           N/A     75  34  22 W3        29.94F
ROUNDUP          N/A     68  34  28 W5        29.86S
$$

REGIONAL REPORTS...DAKOTAS

CITY           SKY/WX    TMP DP  RH WIND       PRES   REMARKS
WILLISTON      CLEAR     68  54  60 N10       29.87R
MINOT          CLEAR     65  55  70 NW12      29.78R
DICKINSON      CLEAR     65  46  50 NW10      29.84R
CROSBY         FAIR      55  55 100 NW9       29.88S
BISMARCK       CLEAR     68  55  63 W6        29.73F
GRAND FORKS    MOCLDY    68  62  81 CALM      29.65R
FARGO          CLEAR     73  65  75 CALM      29.65S
BUFFALO SD       N/A     71  36  27 SW7       29.83S
RAPID CITY     CLEAR     70  61  73 SW7       29.92F
$$

REGIONAL REPORTS...WYOMING/IDAHO/WASHINGTON

CITY           SKY/WX    TMP DP  RH WIND       PRES   REMARKS
GILLETTE       CLEAR     60  33  36 S9        29.99F
SHERIDAN       CLEAR     65  37  35 CALM      29.98S
BUFFALO WY     CLEAR     71  28  20 W8        30.06F
CODY           CLEAR     72  34  25 SW9       30.08F
YELLOWSTONE LA   N/A     48  34  58 CALM      30.34S
IDAHO FALLS    PTCLDY    67  45  45 CALM      30.06S
SALMON         CLEAR     70  39  32 NE5       30.00R
BOISE          PTCLDY    84  34  16 SE7       29.88S
SPOKANE        MOCLDY    80  21  11 SW5       29.89S
$$

REGIONAL REPORTS...ALBERTA

CITY           SKY/WX    TMP DP  RH WIND       PRES   REMARKS
EDMONTON       CLEAR     55  50  82 CALM      30.02R
CALGARY        MOCLDY    63  54  72 CALM      30.10R
LETHBRIDGE     CLEAR     66  52  59 NE13G33   30.01R
MEDICINE HAT   CLEAR     68  52  56 NE14      29.98R
MILK RIVER       N/A     64  54  68 NE14        N/A
ONEFOUR          N/A     64  52  63 E16         N/A
$$

REGIONAL REPORTS...SASKATCHEWAN

CITY           SKY/WX    TMP DP  RH WIND       PRES   REMARKS
SWIFT CURRENT  CLEAR     61  52  72 N7        29.98S
REGINA         CLEAR     57  55  94 NW9       29.89S
SASKATOON      CLEAR     52  50  93 NW7       29.95R
CYPRESS HILLS    N/A     59  46  63 E7          N/A
VAL MARIE        N/A     57  52  82 SE1         N/A
ROCKGLEN         N/A     57  54  88 N5          N/A
$$



USA.gov is the U.S. government's official web portal to all federal, state and local government web resources and services.